Location: Unspecified
(50.7693°N, 0.0000°E)
Time: 16:03:36
(UTC+00:00)

deb Explorer IX - Pass Details

Date: 18 June 2019
Orbit: 539 x 1112 km, 38.8° (Epoch: 21 July)

Event Time Altitude Azimuth Distance (km) Brightness Sun altitude
Rises 14:48:07 0° 212° (SSW) 3,909 ? 47.8°
Reaches altitude 10° 14:51:45 10° 196° (SSW) 2,967 ? 47.3°
Maximum altitude 14:56:34 19° 155° (SSE) 2,352 ? 46.6°
Drops below altitude 10° 15:01:16 10° 113° (ESE) 2,894 ? 45.9°
Sets 15:04:45 0° 97° (E) 3,780 ? 45.4°
